Regional Weather Roundup
Issued by NWS Charleston, WV

Home | Current Version | Previous Version | Graphics & Text | Print | Product List | Glossary On
Versions: 1 2 3 4 5 6 7 8 9 10 11 12 13 14 15 16 17 18 19 20 21 22 23 24 25 26 27 28 29 30 31 32 33 34 35 36 37 38 39 40 41 42 43 44 45 46 47 48 49 50
000
ASUS41 KRLX 222110
RWRRLX
West Virginia Regional Weather Roundup
National Weather Service Charleston WV
400 PM EST MON JAN 22 2018

Note: "fair" indicates few or no clouds below 12,000 feet with no
significant weather and/or obstructions to visibility.

WVZ003-222200-
Northern Panhandle of West Virginia

CITY           SKY/WX    TMP DP  RH WIND       PRES   REMARKS
WHEELING         N/A     62  44  51 S7        29.83F
$$

WVZ009-222200-
Northwest West Virginia

CITY           SKY/WX    TMP DP  RH WIND       PRES   REMARKS
PARKERSBURG      N/A     65  43  44 S5        29.85F
$$

WVZ006-222200-
Western West Virginia

CITY           SKY/WX    TMP DP  RH WIND       PRES   REMARKS
HUNTINGTON     CLOUDY    65  40  39 S12       29.83F
$$

WVZ015-222200-
West Central West Virginia

CITY           SKY/WX    TMP DP  RH WIND       PRES   REMARKS
CHARLESTON     CLOUDY    67  40  37 SW13      29.87R
$$

WVZ022-031-222200-
North Central West Virginia

CITY           SKY/WX    TMP DP  RH WIND       PRES   REMARKS
CLARKSBURG       N/A     67  40  37 S9        29.86F
MORGANTOWN       N/A     67  40  37 SW8       29.87S
$$

WVZ025-035-042-045-222200-
Southern West Virginia

CITY           SKY/WX    TMP DP  RH WIND       PRES   REMARKS
BECKLEY          N/A     58  38  47 S12       29.94R
LOGAN            N/A     64  39  39 S8G14     29.88F
BLUEFIELD        N/A     58  36  43 VRB6      29.96S
LEWISBURG        N/A     58  36  43 S6        29.97S
$$

WVZ047-222200-
Northern Mountains of West Virginia

CITY           SKY/WX    TMP DP  RH WIND       PRES   REMARKS
ELKINS           N/A     62  38  40 SE10      29.91S
$$

WVZ052-222200-
Eastern Panhandle of West Virginia

CITY           SKY/WX    TMP DP  RH WIND       PRES   REMARKS
MARTINSBURG      N/A     63  42  46 S12       29.95F
PETERSBURG       N/A     65  39  39 S12       29.92S
$$



USA.gov is the U.S. government's official web portal to all federal, state and local government web resources and services.